• In Latvia
  • List of Countries
  • For 7 days
  • Water Temperature
  • Satellite Maps
  • Weather Map
  • Weather Widgets
  • user-avatar
    Login

    Hourly Weather Yulara

    Today, 8 December, Thursday

    Time Temperature Precipitation Wind Pressure Humidity
    00:00 +29°C° 0 mm 5 mps 715 mmHg 52%
    01:00 +29°C° 0 mm 4 mps 715 mmHg 53%
    02:00 +29°C° 0 mm 4 mps 715 mmHg 54%
    03:00 +28°C° 0 mm 4 mps 715 mmHg 56%
    04:00 +27°C° 0 mm 5 mps 715 mmHg 58%
    05:00 +27°C° 0 mm 6 mps 716 mmHg 59%
    06:00 +26°C° 0 mm 7 mps 716 mmHg 61%
    07:00 +26°C° 0 mm 7 mps 716 mmHg 57%
    08:00 +27°C° 0 mm 7 mps 717 mmHg 54%
    09:00 +27°C° 0 mm 7 mps 717 mmHg 50%
    10:00 +29°C° 0 mm 6 mps 717 mmHg 46%
    11:00 +30°C° 0 mm 6 mps 717 mmHg 42%
    12:00 +32°C° 0 mm 6 mps 717 mmHg 38%
    13:00 +33°C° 0 mm 6 mps 717 mmHg 36%
    14:00 +33°C° 0 mm 6 mps 717 mmHg 34%
    15:00 +34°C° 0 mm 5 mps 717 mmHg 32%
    16:00 +33°C° 0 mm 6 mps 717 mmHg 31%
    17:00 +33°C° 0 mm 6 mps 717 mmHg 30%
    18:00 +32°C° 0 mm 6 mps 717 mmHg 29%
    19:00 +32°C° 0 mm 7 mps 717 mmHg 28%
    20:00 +30°C° 0 mm 7 mps 718 mmHg 28%
    21:00 +29°C° 0 mm 7 mps 718 mmHg 28%
    22:00 +28°C° 0 mm 7 mps 718 mmHg 28%
    23:00 +27°C° 0 mm 7 mps 718 mmHg 28%

    Tomorrow, 9 December, Friday

    Time Temperature Precipitation Wind Pressure Humidity
    00:00 +26°C° 0 mm 7 mps 718 mmHg 28%
    01:00 +24°C° 0 mm 7 mps 718 mmHg 29%
    02:00 +23°C° 0 mm 7 mps 718 mmHg 31%
    03:00 +23°C° 0 mm 7 mps 718 mmHg 32%
    04:00 +22°C° 0 mm 7 mps 718 mmHg 34%
    05:00 +21°C° 0 mm 7 mps 718 mmHg 35%
    06:00 +21°C° 0 mm 7 mps 719 mmHg 37%
    07:00 +22°C° 0 mm 8 mps 719 mmHg 35%
    08:00 +23°C° 0 mm 8 mps 719 mmHg 34%
    09:00 +24°C° 0 mm 8 mps 719 mmHg 32%
    10:00 +26°C° 0 mm 8 mps 719 mmHg 30%
    11:00 +28°C° 0 mm 7 mps 719 mmHg 27%
    12:00 +29°C° 0 mm 7 mps 719 mmHg 25%
    13:00 +30°C° 0 mm 6 mps 719 mmHg 23%
    14:00 +32°C° 0 mm 6 mps 718 mmHg 21%
    15:00 +32°C° 0 mm 5 mps 718 mmHg 19%
    16:00 +32°C° 0 mm 5 mps 718 mmHg 19%
    17:00 +32°C° 0 mm 5 mps 718 mmHg 18%
    18:00 +30°C° 0 mm 5 mps 718 mmHg 18%
    19:00 +29°C° 0 mm 5 mps 718 mmHg 19%
    20:00 +28°C° 0 mm 5 mps 719 mmHg 20%
    21:00 +27°C° 0 mm 5 mps 719 mmHg 22%
    22:00 +27°C° 0 mm 6 mps 719 mmHg 23%
    23:00 +26°C° 0 mm 6 mps 719 mmHg 24%

    Day after tomorrow, 10 December, Saturday

    Time Temperature Precipitation Wind Pressure Humidity
    00:00 +24°C° 0 mm 6 mps 719 mmHg 26%
    01:00 +23°C° 0 mm 5 mps 719 mmHg 27%
    02:00 +23°C° 0 mm 5 mps 719 mmHg 28%
    03:00 +22°C° 0 mm 5 mps 719 mmHg 30%
    04:00 +21°C° 0 mm 5 mps 719 mmHg 30%
    05:00 +21°C° 0 mm 4 mps 719 mmHg 31%
    06:00 +21°C° 0 mm 4 mps 720 mmHg 31%
    07:00 +22°C° 0 mm 5 mps 720 mmHg 27%
    08:00 +24°C° 0 mm 6 mps 720 mmHg 23%
    09:00 +27°C° 0 mm 7 mps 721 mmHg 19%
    10:00 +28°C° 0 mm 7 mps 720 mmHg 17%
    11:00 +29°C° 0 mm 6 mps 720 mmHg 15%
    12:00 +32°C° 0 mm 6 mps 720 mmHg 12%
    13:00 +32°C° 0 mm 6 mps 719 mmHg 12%
    14:00 +33°C° 0 mm 5 mps 719 mmHg 11%
    15:00 +33°C° 0 mm 5 mps 718 mmHg 10%
    16:00 +33°C° 0 mm 5 mps 718 mmHg 10%
    17:00 +33°C° 0 mm 5 mps 718 mmHg 10%
    18:00 +33°C° 0 mm 5 mps 718 mmHg 11%
    19:00 +30°C° 0 mm 5 mps 718 mmHg 13%
    20:00 +29°C° 0 mm 5 mps 719 mmHg 14%
    21:00 +28°C° 0 mm 4 mps 719 mmHg 16%
    22:00 +27°C° 0 mm 4 mps 719 mmHg 17%
    23:00 +27°C° 0 mm 5 mps 719 mmHg 19%

    11 December, Sunday

    Time Temperature Precipitation Wind Pressure Humidity
    00:00 +26°C° 0 mm 5 mps 719 mmHg 20%
    01:00 +25°C° 0 mm 4 mps 719 mmHg 21%
    02:00 +23°C° 0 mm 4 mps 718 mmHg 22%
    03:00 +23°C° 0 mm 4 mps 718 mmHg 23%
    04:00 +22°C° 0 mm 4 mps 718 mmHg 24%
    05:00 +22°C° 0 mm 4 mps 719 mmHg 25%
    06:00 +22°C° 0 mm 4 mps 719 mmHg 26%
    07:00 +25°C° 0 mm 5 mps 719 mmHg 22%
    08:00 +27°C° 0 mm 6 mps 720 mmHg 19%
    09:00 +29°C° 0 mm 7 mps 720 mmHg 16%
    10:00 +30°C° 0 mm 6 mps 720 mmHg 14%
    11:00 +32°C° 0 mm 6 mps 720 mmHg 12%
    12:00 +33°C° 0 mm 6 mps 719 mmHg 11%
    13:00 +34°C° 0 mm 6 mps 719 mmHg 10%
    14:00 +34°C° 0 mm 6 mps 718 mmHg 9%
    15:00 +35°C° 0 mm 6 mps 717 mmHg 9%
    16:00 +35°C° 0 mm 6 mps 717 mmHg 9%
    17:00 +34°C° 0 mm 6 mps 717 mmHg 9%
    18:00 +34°C° 0 mm 6 mps 717 mmHg 9%
    19:00 +33°C° 0 mm 5 mps 717 mmHg 10%
    20:00 +32°C° 0 mm 5 mps 718 mmHg 12%
    21:00 +29°C° 0 mm 4 mps 718 mmHg 13%
    22:00 +28°C° 0 mm 4 mps 718 mmHg 14%
    23:00 +28°C° 0 mm 4 mps 718 mmHg 15%

    12 December, Monday

    Time Temperature Precipitation Wind Pressure Humidity
    00:00 +27°C° 0 mm 4 mps 717 mmHg 17%
    01:00 +26°C° 0 mm 4 mps 717 mmHg 18%
    02:00 +25°C° 0 mm 4 mps 717 mmHg 19%
    03:00 +25°C° 0 mm 3 mps 716 mmHg 20%
    04:00 +24°C° 0 mm 3 mps 716 mmHg 20%
    05:00 +24°C° 0 mm 3 mps 717 mmHg 21%
    06:00 +24°C° 0 mm 3 mps 717 mmHg 21%
    07:00 +26°C° 0 mm 4 mps 717 mmHg 18%
    08:00 +29°C° 0 mm 5 mps 718 mmHg 15%
    09:00 +32°C° 0 mm 6 mps 718 mmHg 13%
    10:00 +33°C° 0 mm 5 mps 718 mmHg 11%
    11:00 +34°C° 0 mm 5 mps 717 mmHg 10%
    12:00 +35°C° 0 mm 4 mps 717 mmHg 8%
    13:00 +36°C° 0 mm 4 mps 716 mmHg 8%
    14:00 +36°C° 0 mm 3 mps 716 mmHg 8%
    15:00 +37°C° 0 mm 2 mps 715 mmHg 7%
    16:00 +37°C° 0 mm 2 mps 715 mmHg 7%
    17:00 +36°C° 0 mm 1 mps 715 mmHg 7%
    18:00 +33°C° 0 mm 0 mps 715 mmHg 7%
    19:00 +32°C° 0 mm 0 mps 716 mmHg 9%
    20:00 +33°C° 0 mm 1 mps 716 mmHg 11%
    21:00 +31°C° 0 mm 1 mps 716 mmHg 13%
    22:00 +30°C° 0 mm 1 mps 716 mmHg 13%
    23:00 +30°C° 0 mm 1 mps 716 mmHg 14%

    13 December, Tuesday

    Time Temperature Precipitation Wind Pressure Humidity
    00:00 +29°C° 0 mm 1 mps 715 mmHg 14%
    01:00 +29°C° 0 mm 1 mps 715 mmHg 14%
    02:00 +28°C° 0 mm 2 mps 715 mmHg 13%
    03:00 +28°C° 0 mm 2 mps 714 mmHg 13%
    04:00 +27°C° 0 mm 3 mps 715 mmHg 15%
    05:00 +27°C° 0 mm 3 mps 716 mmHg 17%
    06:00 +27°C° 0 mm 4 mps 716 mmHg 19%
    07:00 +28°C° 0 mm 5 mps 717 mmHg 23%
    08:00 +29°C° 0 mm 6 mps 717 mmHg 27%
    09:00 +30°C° 0 mm 7 mps 718 mmHg 31%
    10:00 +33°C° 0 mm 6 mps 717 mmHg 27%
    11:00 +34°C° 0 mm 6 mps 717 mmHg 23%
    12:00 +36°C° 0 mm 5 mps 717 mmHg 19%
    13:00 +36°C° 0 mm 5 mps 716 mmHg 17%
    14:00 +37°C° 0 mm 4 mps 716 mmHg 16%
    15:00 +38°C° 0 mm 4 mps 716 mmHg 14%
    16:00 +37°C° 0 mm 4 mps 716 mmHg 15%
    17:00 +37°C° 0 mm 5 mps 716 mmHg 15%
    18:00 +37°C° 0 mm 5 mps 715 mmHg 16%
    19:00 +35°C° 0 mm 6 mps 716 mmHg 18%
    20:00 +34°C° 0 mm 6 mps 716 mmHg 20%
    21:00 +33°C° 0 mm 7 mps 717 mmHg 23%
    22:00 +32°C° 0 mm 7 mps 717 mmHg 24%
    23:00 +31°C° 0 mm 8 mps 717 mmHg 25%
    Show more